QPF
0.03 0.05 0.05 0.02 0.00 0.00 0.00 0.00 0.00 0.00 0.00 0.00 0.00 0.00 0.00 0.00 0.00 0.00 0.00 0.00 0.00 0.00 0.00 0.00 0.00 0.00 0.00 0.00 0.00 0.00 0.00 0.00 0.00 0.00 0.00 0.00 0.00 0.00 0.00 0.00 0.00 0.00 0.00 0.00 0.00
0.01 0.02 0.05 0.05 0.03 0.01 0.00 0.00 0.00 0.00 0.00 0.00 0.00 0.00 0.00 0.00 0.00 0.00 0.00 0.00 0.00 0.00 0.00 0.00 0.00 0.00 0.00 0.00 0.00 0.00 0.00 0.00 0.00 0.00 0.00 0.00 0.00 0.00 0.00 0.00 0.00 0.00 0.00 0.00 0.00
0.00 0.00 0.01 0.03 0.04 0.04 0.01 0.00 0.00 0.00 0.00 0.00 0.00 0.00 0.00 0.00 0.00 0.00 0.00 0.00 0.00 0.00 0.00 0.00 0.00 0.00 0.00 0.00 0.00 0.00 0.00 0.00 0.00 0.00 0.00 0.00 0.00 0.00 0.00 0.00 0.00 0.00 0.00 0.00 0.00
0.00 0.00 0.00 0.00 0.01 0.04 0.04 0.02 0.01 0.00 0.00 0.00 0.00 0.00 0.01 0.01 0.00 0.00 0.00 0.00 0.00 0.00 0.00 0.00 0.00 0.00 0.00 0.00 0.00 0.00 0.00 0.00 0.00 0.00 0.00 0.00 0.00 0.00 0.00 0.00 0.00 0.00 0.00 0.00 0.00
0.00 0.00 0.00 0.00 0.00 0.01 0.04 0.04 0.01 0.01 0.00 0.00 0.00 0.00 0.02 0.01 0.00 0.00 0.00 0.00 0.00 0.00 0.00 0.00 0.00 0.00 0.00 0.00 0.00 0.00 0.00 0.00 0.00 0.00 0.00 0.00 0.00 0.00 0.00 0.00 0.00 0.00 0.00 0.00 0.00
0.01 0.01 0.01 0.00 0.00 0.00 0.01 0.05 0.04 0.01 0.00 0.00 0.00 0.00 0.01 0.00 0.00 0.00 0.00 0.00 0.00 0.00 0.00 0.00 0.00 0.00 0.00 0.00 0.00 0.00 0.00 0.00 0.00 0.00 0.00 0.00 0.00 0.00 0.00 0.00 0.00 0.00 0.00 0.00 0.00
0.01 0.01 0.01 0.01 0.00 0.00 0.00 0.02 0.06 0.03 0.00 0.01 0.02 0.00 0.00 0.00 0.00 0.00 0.00 0.00 0.00 0.00 0.00 0.00 0.00 0.00 0.00 0.00 0.00 0.00 0.00 0.00 0.00 0.00 0.00 0.00 0.00 0.00 0.00 0.00 0.00 0.00 0.00 0.00 0.00
0.00 0.02 0.03 0.02 0.01 0.00 0.00 0.01 0.06 0.05 0.03 0.02 0.03 0.01 0.00 0.00 0.00 0.00 0.00 0.01 0.00 0.00 0.00 0.00 0.00 0.00 0.00 0.00 0.00 0.00 0.00 0.00 0.00 0.00 0.00 0.00 0.00 0.00 0.00 0.00 0.00 0.00 0.00 0.00 0.00
0.00 0.00 0.03 0.03 0.02 0.01 0.01 0.01 0.05 0.07 0.05 0.03 0.01 0.00 0.00 0.00 0.00 0.00 0.00 0.01 0.01 0.00 0.00 0.00 0.00 0.00 0.00 0.00 0.00 0.00 0.00 0.00 0.00 0.00 0.00 0.00 0.00 0.00 0.00 0.00 0.00 0.00 0.00 0.00 0.00
0.00 0.00 0.01 0.05 0.03 0.02 0.02 0.03 0.06 0.12 0.05 0.01 0.00 0.00 0.00 0.00 0.00 0.00 0.00 0.00 0.00 0.01 0.00 0.01 0.01 0.01 0.00 0.00 0.00 0.00 0.00 0.00 0.00 0.00 0.00 0.00 0.00 0.00 0.00 0.00 0.00 0.00 0.00 0.00 0.00
0.01 0.00 0.01 0.04 0.04 0.03 0.03 0.05 0.04 0.08 0.04 0.00 0.00 0.00 0.00 0.00 0.00 0.00 0.00 0.00 0.00 0.01 0.00 0.01 0.01 0.00 0.00 0.00 0.00 0.00 0.00 0.00 0.00 0.00 0.00 0.00 0.00 0.00 0.00 0.00 0.00 0.00 0.00 0.00 0.00
0.01 0.00 0.00 0.03 0.05 0.04 0.02 0.00 0.00 0.00 0.00 0.00 0.00 0.00 0.00 0.00 0.00 0.00 0.00 0.01 0.01 0.01 0.00 0.00 0.00 0.00 0.00 0.00 0.00 0.00 0.00 0.00 0.00 0.00 0.00 0.00 0.00 0.00 0.00 0.00 0.00 0.00 0.00 0.00 0.00
0.02 0.01 0.00 0.01 0.05 0.04 0.01 0.00 0.02 0.03 0.01 0.00 0.00 0.00 0.00 0.00 0.00 0.00 0.00 0.01 0.00 0.00 0.00 0.00 0.00 0.00 0.00 0.00 0.00 0.00 0.00 0.00 0.00 0.00 0.00 0.00 0.00 0.00 0.00 0.00 0.00 0.00 0.00 0.00 0.00
0.02 0.01 0.01 0.01 0.03 0.01 0.00 0.00 0.01 0.08 0.05 0.01 0.00 0.00 0.00 0.00 0.00 0.00 0.00 0.01 0.00 0.00 0.00 0.00 0.00 0.00 0.00 0.00 0.00 0.00 0.00 0.00 0.00 0.00 0.00 0.00 0.00 0.00 0.00 0.00 0.00 0.00 0.00 0.00 0.00
0.01 0.02 0.02 0.01 0.01 0.01 0.00 0.00 0.02 0.08 0.08 0.01 0.00 0.00 0.00 0.00 0.00 0.00 0.00 0.01 0.00 0.00 0.00 0.00 0.00 0.00 0.00 0.00 0.00 0.00 0.00 0.00 0.00 0.00 0.00 0.00 0.00 0.00 0.00 0.00 0.00 0.00 0.00 0.00 0.00
0.01 0.01 0.05 0.03 0.01 0.00 0.00 0.01 0.06 0.08 0.05 0.00 0.00 0.00 0.00 0.00 0.00 0.00 0.00 0.01 0.01 0.01 0.00 0.00 0.00 0.00 0.00 0.00 0.00 0.00 0.00 0.00 0.01 0.02 0.01 0.00 0.00 0.00 0.00 0.00 0.00 0.00 0.00 0.00 0.00
0.00 0.01 0.03 0.03 0.01 0.00 0.03 0.04 0.05 0.04 0.01 0.00 0.01 0.00 0.00 0.00 0.00 0.00 0.00 0.01 0.01 0.02 0.01 0.00 0.00 0.00 0.00 0.00 0.01 0.02 0.02 0.01 0.01 0.01 0.00 0.00 0.00 0.00 0.00 0.00 0.00 0.00 0.00 0.00 0.00
0.01 0.01 0.02 0.04 0.01 0.01 0.03 0.01 0.04 0.01 0.00 0.00 0.00 0.00 0.00 0.00 0.00 0.01 0.00 0.00 0.00 0.00 0.00 0.00 0.00 0.00 0.00 0.00 0.00 0.01 0.01 0.00 0.00 0.00 0.00 0.00 0.00 0.00 0.00 0.00 0.00 0.00 0.00 0.00 0.00
0.02 0.02 0.01 0.02 0.02 0.00 0.01 0.00 0.00 0.00 0.00 0.00 0.01 0.01 0.01 0.01 0.00 0.01 0.01 0.00 0.00 0.00 0.00 0.00 0.00 0.00 0.00 0.00 0.00 0.00 0.01 0.00 0.00 0.00 0.00 0.00 0.00 0.00 0.00 0.00 0.00 0.00 0.00 0.00 0.00
0.01 0.01 0.00 0.00 0.03 0.01 0.00 0.00 0.00 0.00 0.00 0.00 0.00 0.00 0.00 0.00 0.00 0.01 0.01 0.00 0.00 0.00 0.00 0.00 0.00 0.00 0.00 0.00 0.00 0.00 0.00 0.00 0.02 0.00 0.00 0.00 0.00 0.00 0.00 0.00 0.00 0.00 0.00 0.00 0.00
0.02 0.01 0.00 0.01 0.06 0.02 0.00 0.00 0.00 0.00 0.00 0.00 0.00 0.00 0.00 0.00 0.00 0.00 0.00 0.00 0.00 0.00 0.00 0.00 0.00 0.00 0.00 0.00 0.00 0.00 0.00 0.00 0.00 0.00 0.00 0.00 0.00 0.00 0.00 0.00 0.00 0.00 0.00 0.00 0.00
0.01 0.00 0.00 0.02 0.05 0.01 0.00 0.00 0.00 0.00 0.00 0.00 0.00 0.00 0.00 0.00 0.00 0.00 0.00 0.00 0.00 0.00 0.00 0.00 0.00 0.00 0.00 0.00 0.00 0.00 0.00 0.00 0.00 0.00 0.00 0.00 0.00 0.00 0.00 0.00 0.00 0.00 0.00 0.00 0.00
0.00 0.00 0.03 0.03 0.03 0.01 0.01 0.00 0.00 0.00 0.00 0.01 0.00 0.00 0.00 0.00 0.00 0.00 0.00 0.00 0.00 0.00 0.00 0.00 0.01 0.00 0.00 0.00 0.00 0.00 0.00 0.00 0.00 0.01 0.00 0.00 0.00 0.00 0.00 0.00 0.00 0.00 0.00 0.00 0.00
0.00 0.01 0.05 0.06 0.01 0.01 0.00 0.00 0.00 0.01 0.01 0.03 0.02 0.00 0.00 0.00 0.00 0.00 0.00 0.00 0.00 0.00 0.01 0.03 0.01 0.00 0.00 0.00 0.00 0.00 0.00 0.00 0.01 0.02 0.00 0.00 0.00 0.00 0.00 0.00 0.00 0.00 0.00 0.00 0.00
0.00 0.01 0.01 0.02 0.00 0.01 0.01 0.00 0.00 0.00 0.01 0.02 0.03 0.02 0.01 0.00 0.00 0.00 0.00 0.00 0.00 0.00 0.03 0.05 0.01 0.00 0.00 0.00 0.00 0.00 0.00 0.00 0.02 0.00 0.00 0.00 0.00 0.00 0.00 0.00 0.00 0.00 0.00 0.00 0.00
0.00 0.00 0.00 0.01 0.00 0.00 0.02 0.00 0.00 0.00 0.00 0.00 0.00 0.00 0.01 0.01 0.00 0.00 0.00 0.00 0.00 0.00 0.01 0.02 0.01 0.01 0.00 0.00 0.00 0.00 0.00 0.00 0.00 0.00 0.00 0.00 0.00 0.00 0.00 0.00 0.00 0.00 0.00 0.00 0.00
0.00 0.00 0.00 0.01 0.00 0.00 0.00 0.01 0.00 0.00 0.00 0.00 0.00 0.00 0.00 0.00 0.01 0.02 0.02 0.01 0.01 0.01 0.00 0.00 0.00 0.01 0.00 0.00 0.00 0.01 0.00 0.00 0.00 0.00 0.00 0.00 0.00 0.00 0.00 0.00 0.00 0.00 0.00 0.00 0.00
MSLP
1016.41 1016.70 1017.13 1017.56 1017.91 1018.16 1018.60 1018.90 1019.11 1019.46 1019.61 1019.77 1019.86 1019.89 1019.90 1019.92 1019.80 1019.73 1019.69 1019.21 1019.16 1018.93 1018.63 1018.59 1018.61 1018.54 1018.54 1019.33 1019.64 1020.10 1021.09 1021.80 1021.60 1021.31 1020.99 1020.60 1020.40 1020.28 1020.29 1020.26 1020.53 1020.75 1020.89 1021.10 1021.20
1016.08 1016.46 1016.65 1017.19 1017.66 1017.97 1018.38 1018.66 1019.05 1019.30 1019.61 1019.77 1019.93 1020.01 1020.03 1020.10 1020.14 1019.73 1019.24 1018.95 1019.02 1018.98 1019.06 1019.17 1019.43 1019.27 1019.76 1020.11 1020.23 1020.65 1021.57 1021.47 1021.27 1021.11 1020.98 1020.77 1020.65 1020.59 1020.59 1020.63 1020.74 1020.91 1021.08 1021.14 1021.32
1015.85 1016.18 1016.35 1016.82 1017.39 1017.73 1018.03 1018.45 1018.90 1019.27 1019.52 1019.66 1019.94 1020.08 1020.14 1020.12 1020.22 1019.23 1018.61 1018.53 1018.79 1019.04 1019.29 1019.35 1019.53 1019.75 1020.39 1020.57 1020.97 1021.25 1021.50 1021.34 1021.24 1021.07 1020.98 1020.96 1020.84 1020.77 1020.77 1020.86 1020.96 1021.06 1021.17 1021.36 1021.50
1015.52 1015.89 1016.21 1016.50 1017.01 1017.34 1017.79 1018.19 1018.65 1019.11 1019.28 1019.52 1019.72 1020.03 1020.09 1020.30 1020.29 1018.95 1018.76 1018.64 1018.73 1019.08 1019.46 1019.58 1019.81 1020.34 1020.85 1021.11 1021.27 1021.59 1021.50 1021.34 1021.22 1021.22 1021.17 1021.20 1021.16 1021.14 1021.05 1020.86 1020.85 1020.97 1021.23 1021.45 1021.63
1015.20 1015.50 1015.97 1016.01 1016.72 1017.07 1017.47 1017.85 1018.29 1018.84 1019.18 1019.39 1019.67 1020.01 1020.29 1020.37 1019.69 1018.94 1018.78 1018.36 1018.71 1019.28 1019.61 1019.88 1020.18 1020.66 1021.16 1021.37 1021.53 1021.63 1021.69 1021.59 1021.45 1021.35 1021.33 1021.31 1021.28 1021.45 1021.36 1020.80 1021.07 1021.09 1021.23 1021.55 1021.74
1014.84 1015.21 1015.67 1016.00 1016.51 1016.78 1017.18 1017.59 1017.88 1018.49 1019.06 1019.14 1019.77 1019.98 1020.36 1020.11 1019.35 1019.19 1018.95 1018.92 1019.15 1019.45 1019.78 1019.92 1020.28 1020.56 1021.20 1021.56 1021.72 1021.89 1021.97 1022.04 1021.91 1021.66 1021.49 1021.54 1021.55 1021.64 1021.44 1021.27 1021.36 1021.48 1021.68 1021.79 1021.70
1014.65 1014.91 1015.29 1015.67 1016.15 1016.43 1016.89 1017.32 1017.53 1018.32 1018.64 1019.06 1019.63 1020.14 1020.27 1019.60 1019.24 1019.33 1019.17 1019.08 1019.29 1019.42 1019.74 1019.98 1020.12 1020.53 1021.18 1021.84 1021.97 1022.29 1022.63 1022.59 1022.36 1022.05 1021.81 1021.70 1021.78 1021.60 1021.51 1021.47 1021.63 1021.92 1021.96 1021.93 1021.70
1014.32 1014.58 1014.97 1015.38 1015.78 1016.16 1016.59 1017.01 1017.42 1017.87 1018.36 1019.15 1019.58 1020.19 1020.01 1019.12 1019.21 1019.38 1019.32 1019.22 1019.34 1019.52 1019.78 1020.08 1020.09 1020.75 1021.33 1022.05 1022.45 1022.79 1023.18 1023.27 1022.53 1022.18 1021.97 1021.99 1021.82 1021.73 1021.83 1021.91 1022.14 1022.10 1021.82 1021.65 1021.26
1014.07 1014.34 1014.55 1014.90 1015.46 1016.04 1016.38 1016.91 1017.27 1017.89 1018.42 1019.11 1019.96 1020.11 1019.97 1019.09 1019.22 1019.03 1019.24 1019.18 1019.61 1020.02 1020.12 1020.30 1020.41 1021.06 1021.85 1022.39 1023.14 1023.19 1023.28 1023.37 1023.04 1022.33 1022.29 1022.53 1022.56 1022.07 1022.11 1022.29 1022.45 1022.27 1022.05 1021.60 1020.72
1013.82 1014.36 1014.28 1014.62 1015.06 1015.80 1016.18 1016.87 1017.38 1018.18 1018.88 1019.24 1019.73 1020.56 1019.79 1019.12 1018.89 1019.04 1019.20 1019.26 1019.71 1020.32 1020.58 1020.66 1020.76 1021.23 1021.78 1022.32 1022.91 1023.28 1023.50 1023.27 1023.07 1022.91 1022.78 1022.83 1022.88 1022.24 1022.20 1022.37 1022.37 1022.24 1021.97 1021.35 1020.42
1013.42 1013.52 1014.06 1014.19 1014.77 1015.37 1016.18 1017.20 1018.17 1018.45 1018.17 1018.20 1018.52 1018.67 1018.59 1018.69 1018.92 1019.15 1019.13 1019.50 1019.98 1020.48 1020.61 1020.77 1020.89 1020.66 1021.47 1022.05 1022.52 1022.98 1023.40 1023.47 1023.20 1022.70 1022.83 1022.57 1022.68 1022.62 1022.01 1022.21 1022.16 1021.66 1021.05 1020.41 1019.91
1013.08 1013.51 1013.59 1013.83 1014.41 1014.92 1015.86 1015.85 1015.54 1015.74 1017.23 1017.89 1017.83 1018.40 1018.46 1018.34 1019.14 1019.25 1019.20 1019.84 1020.12 1020.34 1020.83 1021.31 1020.52 1020.96 1021.34 1022.14 1022.72 1023.12 1023.52 1023.78 1023.43 1022.98 1022.88 1022.51 1022.08 1022.20 1021.72 1021.01 1020.89 1020.64 1020.07 1019.92 1019.95
1012.58 1013.11 1013.59 1013.73 1014.30 1014.77 1015.01 1015.19 1015.27 1015.58 1016.56 1017.49 1017.53 1018.23 1018.26 1018.52 1018.66 1018.79 1019.13 1019.63 1019.93 1020.28 1020.54 1020.74 1020.76 1020.92 1021.56 1022.18 1022.90 1023.22 1023.44 1023.61 1023.72 1023.52 1023.20 1022.89 1021.46 1020.92 1020.60 1020.45 1020.25 1019.86 1019.71 1019.84 1020.04
1012.03 1012.57 1013.18 1013.73 1015.26 1013.92 1014.67 1015.37 1015.72 1015.68 1016.64 1017.01 1017.21 1017.11 1017.78 1018.17 1018.64 1018.20 1018.63 1019.15 1020.07 1020.28 1020.88 1021.12 1020.80 1021.17 1021.69 1021.99 1022.47 1022.98 1023.22 1023.48 1023.74 1024.20 1024.11 1023.74 1022.48 1021.20 1020.88 1020.59 1020.04 1019.21 1019.46 1019.89 1020.17
1011.46 1012.04 1012.77 1013.57 1014.22 1013.56 1014.21 1015.15 1015.64 1016.44 1016.04 1015.91 1016.40 1016.42 1016.58 1017.77 1017.70 1018.35 1018.47 1019.13 1019.82 1019.97 1020.54 1020.54 1020.82 1020.92 1021.36 1021.54 1022.15 1022.49 1022.83 1023.50 1023.80 1024.28 1024.59 1024.08 1023.95 1020.89 1020.36 1020.53 1019.61 1019.14 1019.33 1019.99 1020.34
1010.87 1011.45 1012.39 1013.34 1013.93 1013.73 1013.67 1014.90 1015.87 1016.16 1014.74 1015.15 1015.34 1015.80 1017.03 1017.24 1017.72 1018.40 1018.60 1019.19 1019.90 1020.22 1020.54 1020.99 1021.04 1020.65 1020.61 1021.29 1021.77 1022.47 1023.16 1024.02 1024.01 1024.42 1024.29 1023.67 1023.73 1020.89 1020.40 1019.56 1019.36 1018.91 1019.45 1020.09 1020.52
1010.47 1011.09 1011.92 1012.08 1012.88 1013.51 1014.17 1014.59 1014.11 1013.29 1014.26 1014.71 1014.76 1015.18 1015.58 1016.35 1017.52 1017.73 1018.23 1018.87 1019.16 1020.20 1020.45 1021.15 1020.80 1020.66 1020.70 1021.49 1022.07 1022.36 1023.15 1024.14 1024.48 1024.76 1023.95 1023.20 1023.41 1020.26 1019.83 1019.10 1019.00 1018.71 1019.69 1020.40 1020.91
1010.24 1011.12 1011.84 1012.75 1013.48 1013.93 1013.94 1013.74 1012.22 1012.30 1013.38 1013.32 1014.01 1014.90 1015.22 1015.99 1017.02 1017.29 1017.74 1018.30 1018.59 1018.95 1019.54 1020.26 1020.57 1020.38 1020.38 1020.52 1021.10 1021.91 1022.27 1022.79 1023.58 1024.29 1024.06 1023.84 1021.95 1019.75 1018.74 1018.53 1018.78 1019.20 1019.95 1020.78 1021.39
1010.28 1011.53 1012.05 1012.21 1012.96 1013.09 1013.17 1011.93 1010.93 1010.95 1011.88 1012.79 1013.98 1014.70 1015.11 1015.65 1016.16 1016.70 1016.87 1017.10 1017.30 1017.98 1018.96 1019.41 1019.63 1019.48 1019.59 1019.97 1020.30 1021.62 1021.54 1022.01 1022.98 1024.14 1024.23 1023.00 1021.17 1019.71 1018.92 1019.03 1019.21 1019.83 1020.39 1021.27 1021.84
1010.43 1011.59 1011.90 1012.11 1012.45 1013.60 1013.42 1012.01 1011.66 1010.96 1011.01 1012.16 1012.86 1013.77 1014.27 1014.88 1015.62 1016.09 1016.55 1016.27 1016.78 1017.30 1018.03 1018.86 1019.59 1019.48 1019.46 1020.00 1020.16 1020.22 1020.67 1021.91 1022.71 1023.28 1023.44 1021.83 1020.89 1019.19 1018.92 1019.09 1019.61 1020.38 1020.79 1021.67 1022.37
1010.54 1011.66 1011.09 1011.92 1013.22 1013.82 1013.20 1012.89 1011.82 1011.16 1010.91 1011.69 1012.21 1013.53 1013.95 1014.43 1014.99 1015.47 1015.70 1015.72 1015.67 1016.48 1017.70 1018.36 1018.86 1020.08 1019.81 1019.28 1019.01 1019.99 1020.20 1020.63 1021.04 1021.83 1021.73 1021.33 1019.10 1017.59 1017.77 1018.44 1019.36 1020.28 1021.15 1022.00 1022.78
1010.39 1011.57 1011.46 1011.71 1013.68 1013.04 1012.40 1011.89 1012.35 1011.76 1011.50 1011.49 1011.89 1012.53 1013.35 1014.11 1014.72 1015.23 1015.05 1014.88 1014.87 1015.64 1016.68 1017.69 1018.48 1019.38 1019.16 1018.92 1018.91 1018.77 1018.78 1019.67 1019.83 1020.90 1020.97 1020.20 1017.35 1016.98 1017.30 1017.96 1018.89 1020.32 1021.41 1022.25 1022.95
1010.63 1011.72 1011.88 1011.77 1012.33 1012.25 1012.41 1012.93 1012.80 1011.94 1011.22 1011.63 1012.06 1012.26 1012.64 1013.63 1014.52 1014.77 1014.70 1014.44 1014.58 1015.47 1015.82 1016.93 1018.06 1019.04 1019.29 1019.50 1019.30 1018.90 1018.84 1018.72 1019.33 1019.82 1019.84 1019.27 1017.26 1016.94 1017.34 1018.15 1019.19 1020.25 1021.47 1022.36 1023.08
1010.84 1012.17 1012.12 1011.65 1011.42 1012.10 1012.62 1012.12 1011.45 1011.49 1011.02 1011.46 1011.96 1012.35 1012.60 1013.20 1013.44 1014.09 1014.52 1014.64 1014.74 1015.19 1015.73 1016.43 1017.08 1017.32 1016.99 1016.94 1017.90 1018.44 1018.04 1018.19 1018.51 1019.03 1017.71 1017.62 1016.95 1017.02 1017.94 1018.67 1019.73 1020.64 1021.55 1022.48 1023.20
1010.54 1010.67 1010.34 1011.00 1010.37 1010.74 1010.92 1011.43 1011.22 1011.03 1010.77 1010.92 1011.69 1011.60 1012.04 1012.86 1013.41 1013.82 1014.24 1015.04 1015.13 1014.88 1015.71 1016.36 1016.69 1017.04 1016.70 1017.11 1017.26 1016.88 1016.97 1017.39 1017.66 1016.70 1016.84 1016.05 1016.52 1015.71 1016.88 1018.32 1019.38 1020.50 1021.72 1022.52 1023.38
1010.16 1010.43 1010.08 1009.19 1009.80 1010.75 1009.80 1010.28 1010.53 1010.47 1010.13 1010.89 1010.82 1011.25 1011.77 1011.68 1011.96 1012.83 1013.47 1014.15 1014.50 1015.39 1015.64 1016.22 1016.34 1016.79 1016.61 1016.78 1016.90 1016.78 1016.54 1016.33 1015.89 1015.91 1015.95 1015.27 1015.34 1015.76 1016.67 1017.98 1019.52 1020.26 1021.47 1022.47 1023.41
1009.64 1009.59 1009.43 1008.64 1008.72 1009.72 1009.63 1009.68 1009.93 1010.56 1010.43 1010.13 1010.58 1011.41 1011.79 1011.24 1011.01 1011.71 1012.21 1012.62 1013.26 1014.09 1014.97 1015.83 1016.15 1016.45 1016.26 1016.05 1016.65 1016.47 1015.09 1014.68 1015.04 1014.67 1014.25 1014.86 1013.17 1015.85 1017.08 1017.92 1018.75 1019.94 1021.27 1022.38 1023.38
Thickness
5561 5565 5569 5571 5574 5578 5581 5585 5589 5593 5597 5602 5609 5615 5621 5626 5632 5638 5640 5651 5656 5663 5670 5676 5679 5683 5688 5682 5684 5682 5662 5654 5662 5666 5676 5686 5689 5693 5695 5695 5694 5695 5696 5698 5700
5551 5555 5561 5562 5566 5570 5573 5577 5581 5584 5589 5593 5599 5605 5611 5615 5621 5629 5641 5645 5649 5655 5659 5662 5663 5671 5666 5670 5671 5665 5653 5660 5669 5672 5674 5681 5684 5685 5688 5686 5689 5691 5694 5697 5697
5541 5545 5551 5555 5557 5562 5566 5570 5573 5576 5580 5586 5590 5595 5601 5607 5610 5625 5637 5641 5644 5648 5653 5658 5661 5663 5658 5663 5660 5657 5653 5661 5667 5672 5676 5676 5680 5683 5682 5680 5685 5687 5691 5693 5692
5531 5535 5538 5544 5549 5554 5557 5561 5564 5567 5573 5578 5582 5586 5592 5597 5593 5623 5628 5634 5639 5643 5646 5649 5652 5647 5645 5648 5654 5650 5657 5659 5666 5667 5670 5670 5676 5676 5678 5681 5686 5688 5689 5690 5689
5519 5525 5529 5536 5539 5543 5548 5553 5557 5559 5563 5568 5572 5576 5581 5586 5597 5616 5623 5631 5634 5637 5637 5638 5638 5636 5635 5639 5645 5645 5650 5654 5658 5662 5665 5669 5669 5669 5672 5681 5681 5684 5684 5684 5684
5510 5514 5518 5523 5528 5534 5538 5543 5548 5550 5552 5559 5561 5566 5570 5575 5595 5603 5612 5618 5621 5627 5628 5632 5631 5634 5630 5634 5636 5641 5643 5643 5648 5653 5658 5662 5663 5667 5671 5671 5675 5677 5675 5675 5678
5497 5503 5509 5515 5519 5523 5528 5533 5538 5538 5544 5547 5550 5554 5560 5575 5586 5592 5602 5609 5612 5618 5620 5625 5628 5628 5627 5625 5630 5631 5631 5633 5637 5646 5650 5655 5654 5659 5663 5667 5667 5664 5666 5669 5673
5490 5495 5499 5504 5511 5516 5518 5523 5526 5529 5534 5533 5537 5544 5551 5570 5575 5582 5590 5598 5602 5607 5611 5616 5621 5617 5618 5618 5618 5619 5616 5613 5632 5638 5645 5647 5645 5659 5653 5657 5655 5657 5662 5664 5670
5477 5485 5493 5497 5500 5504 5508 5509 5515 5516 5519 5522 5524 5533 5540 5560 5564 5574 5580 5588 5590 5593 5598 5603 5609 5604 5604 5601 5600 5607 5603 5609 5619 5631 5637 5632 5629 5650 5646 5644 5645 5649 5653 5656 5666
5465 5472 5483 5488 5492 5493 5496 5498 5498 5500 5503 5509 5515 5517 5533 5545 5555 5562 5567 5576 5578 5578 5583 5588 5592 5590 5589 5591 5586 5597 5602 5607 5610 5618 5616 5619 5617 5639 5638 5636 5638 5639 5643 5650 5661
5455 5465 5473 5481 5483 5485 5484 5476 5483 5490 5497 5513 5520 5526 5529 5540 5545 5550 5559 5563 5566 5567 5573 5577 5577 5589 5592 5592 5593 5590 5591 5594 5600 5610 5610 5612 5611 5617 5629 5627 5629 5636 5643 5651 5655
5443 5452 5463 5472 5476 5476 5474 5483 5499 5511 5502 5502 5511 5512 5520 5532 5531 5538 5547 5546 5552 5560 5558 5562 5576 5583 5585 5580 5581 5580 5579 5578 5589 5599 5600 5603 5609 5610 5619 5631 5634 5638 5646 5648 5647
5432 5442 5452 5461 5466 5464 5474 5486 5489 5493 5490 5489 5499 5503 5511 5516 5523 5530 5537 5538 5543 5550 5554 5557 5567 5572 5571 5567 5565 5567 5570 5573 5576 5579 5586 5588 5608 5613 5618 5623 5628 5631 5634 5635 5637
5419 5432 5440 5447 5445 5462 5468 5470 5477 5484 5472 5475 5483 5493 5499 5507 5513 5528 5532 5533 5532 5539 5540 5545 5558 5558 5556 5560 5560 5555 5562 5565 5564 5559 5563 5570 5569 5603 5613 5614 5622 5628 5624 5623 5622
5405 5419 5428 5434 5444 5459 5464 5462 5467 5463 5471 5475 5474 5491 5500 5503 5513 5514 5522 5519 5521 5529 5535 5547 5546 5550 5551 5558 5554 5557 5554 5549 5546 5543 5544 5560 5556 5582 5598 5601 5612 5618 5618 5613 5610
5389 5405 5414 5418 5432 5447 5457 5454 5453 5446 5461 5467 5473 5479 5486 5496 5498 5498 5505 5506 5510 5515 5520 5525 5530 5540 5549 5548 5545 5539 5538 5532 5537 5533 5535 5552 5552 5574 5577 5593 5598 5607 5605 5603 5599
5377 5386 5398 5414 5431 5436 5441 5443 5454 5450 5448 5460 5468 5482 5493 5494 5493 5498 5501 5502 5506 5504 5511 5505 5519 5529 5536 5530 5530 5535 5530 5518 5519 5521 5523 5533 5536 5582 5573 5581 5587 5595 5591 5584 5579
5372 5373 5381 5397 5413 5419 5429 5435 5452 5456 5451 5468 5482 5483 5480 5487 5483 5489 5496 5498 5506 5504 5509 5511 5504 5521 5525 5533 5533 5528 5529 5504 5494 5495 5515 5509 5538 5563 5579 5579 5577 5575 5568 5562 5556
5363 5361 5369 5391 5400 5411 5423 5436 5451 5464 5456 5463 5472 5464 5466 5476 5483 5487 5492 5501 5510 5507 5503 5505 5511 5519 5519 5523 5526 5511 5513 5521 5501 5443 5474 5501 5532 5555 5562 5564 5562 5554 5552 5545 5538
5356 5355 5367 5378 5393 5391 5394 5427 5432 5448 5460 5465 5465 5468 5464 5470 5476 5481 5478 5502 5498 5502 5499 5491 5491 5498 5509 5511 5510 5508 5516 5501 5490 5495 5497 5516 5524 5554 5559 5551 5542 5539 5538 5527 5520
5355 5354 5365 5372 5370 5369 5380 5395 5413 5438 5455 5457 5455 5453 5470 5465 5475 5471 5479 5491 5506 5504 5493 5484 5491 5477 5487 5495 5516 5505 5503 5500 5505 5484 5479 5472 5521 5547 5562 5547 5539 5532 5521 5510 5502
5352 5350 5357 5360 5342 5361 5384 5398 5404 5422 5435 5441 5450 5454 5454 5465 5464 5470 5469 5497 5502 5501 5486 5484 5476 5464 5485 5493 5496 5506 5506 5498 5497 5473 5473 5489 5533 5554 5550 5537 5529 5515 5501 5492 5487
5345 5340 5346 5349 5343 5354 5365 5377 5395 5411 5435 5434 5440 5450 5453 5453 5455 5460 5471 5484 5484 5486 5485 5483 5461 5454 5458 5469 5466 5477 5487 5499 5490 5470 5464 5484 5513 5533 5523 5516 5509 5499 5488 5480 5475
5339 5331 5327 5340 5345 5354 5355 5379 5401 5408 5424 5431 5433 5440 5453 5450 5453 5455 5456 5470 5471 5479 5478 5478 5458 5471 5482 5500 5475 5470 5480 5484 5486 5475 5496 5486 5512 5524 5501 5499 5487 5480 5473 5467 5463
5335 5341 5334 5329 5350 5362 5374 5392 5399 5412 5418 5426 5428 5441 5451 5440 5442 5443 5461 5451 5456 5471 5463 5460 5455 5465 5477 5471 5464 5477 5483 5473 5469 5493 5482 5506 5496 5526 5515 5491 5483 5471 5460 5457 5452
5345 5345 5347 5359 5355 5354 5377 5391 5397 5405 5420 5424 5429 5437 5437 5442 5457 5456 5455 5447 5454 5447 5454 5449 5453 5445 5459 5467 5453 5457 5459 5463 5475 5480 5479 5498 5499 5507 5485 5468 5462 5464 5457 5449 5439
5344 5348 5351 5367 5365 5358 5377 5390 5405 5400 5412 5430 5429 5426 5429 5450 5460 5460 5462 5462 5455 5451 5449 5442 5446 5441 5453 5458 5440 5435 5465 5478 5469 5481 5489 5475 5520 5483 5466 5471 5467 5456 5446 5438 5429